Location: Unspecified
(0.0000°N, 0.0000°E)
Time: 11:28:11
(UTC+00:00)

A-11 Canister half - Pass Details

Date: 27 November 2019
Orbit: 1515 x 1685 km, 47.2° (Epoch: 08 December)

Event Time Altitude Azimuth Distance (km) Brightness Sun altitude
Rises 10:37:37 0° 194° (SSW) 4,672 11.8 62.8°
Reaches altitude 10° 10:41:36 10° 179° (S) 3,706 11.5 63.5°
Maximum altitude 10:48:26 22° 132° (SE) 2,892 11.3 64.4°
Drops below altitude 10° 10:55:20 10° 85° (E) 3,787 11.4 65.3°
Sets 10:59:25 0° 71° (ENE) 4,801 11.7 65.8°
